カタログに戻る

STARLINK-6170

運用中通信VLEO
NORAD 57129·PAYLOAD·🇺🇸 United States

打ち上げ Jun 23, 2023 から Cape Canaveral Space Force Station

Loading…

次のパス (今後24時間)

TLE

最新Source: CelesTrak SupGP

元期: Sep 15, 2026, 01:45 UTC

1 57129C 23090AE  26258.07340278  .00009000  00000+0  32602-3 0  2584
2 57129  43.0009 274.2910 0000840 307.5864 336.3147 15.27571388    17

AllMySatでSTARLINK-6170をリアルタイム追跡

Download on the App Store